Location: Godiavel Galaoual
(15.2485°N, 12.6604°W)
Time: 09:26:22
(UTC+00:00)

deb Explorer IX - All Passes

Search period start: 15 June 2021 00:00
Search period end: 25 June 2021 00:00
Orbit: 542 x 1097 km, 38.8° (Epoch: 14 June)

Date Brightness Start Highest point End Pass type
(mag) Time Alt. Az. Time Alt. Az. Time Alt. Az.
15 Jun - 05:25:14 10° SSW 05:28:48 24° SE 05:32:10 10° E visible
15 Jun - 07:11:39 10° W 07:15:22 32° NW 07:19:02 10° NNE daylight
15 Jun - 14:23:50 10° NNW 14:28:44 32° NE 14:34:19 10° E daylight
15 Jun - 16:10:01 10° WNW 16:15:51 54° SW 16:22:33 10° SE daylight
16 Jun - 05:01:20 10° SSW 05:05:01 25° SE 05:08:28 10° E visible
16 Jun - 06:47:49 10° W 06:51:36 32° NW 06:55:16 10° NNE daylight
16 Jun - 14:00:07 10° NNW 14:04:49 31° NE 14:10:12 10° E daylight
16 Jun - 15:46:13 10° WNW 15:51:53 53° SW 15:58:26 10° SE daylight
17 Jun - 04:37:23 10° SSW 04:41:14 26° SE 04:44:46 10° E visible
17 Jun - 06:23:59 10° W 06:27:50 32° NW 06:31:31 10° NNE daylight
17 Jun - 13:36:24 10° NNW 13:40:55 30° NE 13:46:07 10° E daylight
17 Jun - 15:22:27 10° WNW 15:27:57 52° SW 15:34:19 10° SE daylight
18 Jun - 04:13:25 10° SSW 04:17:26 27° SE 04:21:04 10° E visible
18 Jun - 06:00:06 10° W 06:04:04 33° NW 06:07:45 10° NNE daylight
18 Jun - 13:12:41 10° NNW 13:17:02 29° NE 13:22:00 10° E daylight
18 Jun - 14:58:42 10° WNW 15:04:00 51° SW 15:10:13 10° SE daylight
19 Jun - 03:49:25 10° SSW 03:53:37 28° SE 03:57:23 10° E visible
19 Jun - 05:36:12 10° W 05:40:16 33° NW 05:44:02 10° NNE visible
19 Jun - 12:48:59 10° NNW 12:53:10 28° NE 12:57:55 10° E daylight
19 Jun - 14:34:57 10° WNW 14:40:05 50° SW 14:46:06 10° SE daylight
20 Jun - 03:25:24 10° SSW 03:29:47 29° SE 03:33:41 10° E visible
20 Jun - 05:12:15 10° WSW 05:16:28 34° NW 05:20:18 10° NNE visible
20 Jun - 12:25:17 10° NNW 12:29:18 27° NE 12:33:51 10° E daylight
20 Jun - 14:11:13 10° WNW 14:16:10 49° SW 14:22:00 10° SE daylight
21 Jun - 03:01:21 10° SSW 03:05:57 30° SE 03:09:59 10° E visible
21 Jun - 04:48:17 10° WSW 04:52:39 35° NW 04:56:35 10° NNE visible
21 Jun - 12:01:35 10° NNW 12:05:27 26° NE 12:09:47 10° E daylight
21 Jun - 13:47:28 10° WNW 13:52:16 48° SW 13:57:54 10° SE daylight
22 Jun - 02:37:17 10° SSW 02:42:04 31° SE 02:46:17 10° E visible
22 Jun - 04:24:18 10° WSW 04:28:50 35° NW 04:32:52 10° NNE visible
22 Jun - 11:37:53 10° NNW 11:41:36 25° NE 11:45:44 10° E daylight
22 Jun - 13:23:45 10° WNW 13:28:23 47° SW 13:33:49 10° SE daylight
23 Jun - 02:13:11 10° SSW 02:18:12 32° SE 02:22:34 10° ENE visible
23 Jun - 04:00:16 10° WSW 04:05:00 36° NW 04:09:09 10° NNE visible
23 Jun - 11:14:10 10° NNW 11:17:45 24° NE 11:21:43 10° E daylight
23 Jun - 13:00:02 10° WNW 13:04:31 46° SW 13:09:44 10° SSE daylight
24 Jun - 01:49:05 10° SSW 01:54:18 33° SE 01:58:51 10° ENE night (unlit)
24 Jun - 03:36:12 10° WSW 03:41:08 37° NW 03:45:25 10° NNE visible
24 Jun - 10:50:27 10° NNW 10:53:55 24° NE 10:57:43 10° E daylight
24 Jun - 12:36:18 10° WNW 12:40:39 45° SW 12:45:40 10° SSE daylight
